FW0683 Livingston NJ US current weather conditions

sailwx.info

Wind from 156

Air temperature 5.0° C
Dewpoint -8.1° C

Last reported at 2020-Feb-24 05:01 UTC.
Time now 2020-Feb-24 05:46 UTC

Location: N 40°47' W 074°21'.
View on Google Maps.

See reports from other nearby stations

  
Tides and Currents Weather Stations Pressure Air Temp Water Temp Dewpoint Dewpoint Depression Visibility Wind Speed Wind Dir Waves Ship Positions
date/time (UTC)wind fromknots sea level pressurealtimeterstation pressurevisibilityair tempwater tempwave heightnotes
2020-Feb-24 05:01 156 5.0
2020-Feb-24 04:46 156 5.0
2020-Feb-24 04:31 156 5.0
2020-Feb-24 04:16 156 5.0
2020-Feb-24 04:01 158 4.4
2020-Feb-24 03:47 160 4.4
2020-Feb-24 03:31 160 5.0
2020-Feb-24 03:16 160 5.0
2020-Feb-24 03:01 142 5.6
2020-Feb-24 02:46 143 5.6
2020-Feb-24 02:31 139 5.6
2020-Feb-24 02:17 157 5.6
2020-Feb-24 01:46 158 5.0
2020-Feb-24 01:31 160 5.0
2020-Feb-24 01:17 160 5.0
2020-Feb-24 01:01 160 5.6
2020-Feb-24 00:47 156 6.7
2020-Feb-24 00:31 156 6.7
2020-Feb-24 00:16 147 6.7
2020-Feb-24 00:01 096 7.2
2020-Feb-23 23:45 096 7.8
2020-Feb-23 23:31 094 7.8
2020-Feb-23 23:16 065 8.3
2020-Feb-23 23:02 065 9.4
2020-Feb-23 22:46 107 9.4
2020-Feb-23 22:31 222 10.6
2020-Feb-23 22:01 224 11.7
2020-Feb-23 21:46 285 0 gusting 5 12.2
2020-Feb-23 21:30 239 0 gusting 4 12.8
2020-Feb-23 21:15 225 12.8
2020-Feb-23 21:02 041 0 gusting 4 13.3
2020-Feb-23 20:45 304 13.3
2020-Feb-23 20:31 290 0 gusting 3 13.9
2020-Feb-23 20:15 252 0 gusting 4 13.9
2020-Feb-23 20:01 283 0 gusting 4 13.3
2020-Feb-23 19:46 216 2 gusting 7 13.3
2020-Feb-23 19:30 187 0 gusting 6 13.3
2020-Feb-23 19:15 320 0 gusting 5 12.8
2020-Feb-23 19:00 252 1 gusting 6 12.8
2020-Feb-23 18:45 336 0 gusting 7 12.8
2020-Feb-23 18:30 252 3 gusting 9 12.8
2020-Feb-23 18:15 345 2 gusting 5 12.2
2020-Feb-23 18:00 241 2 gusting 7 11.7
2020-Feb-23 17:45 288 2 gusting 7 11.7
2020-Feb-23 17:30 290 1 gusting 6 11.7
2020-Feb-23 17:15 233 0 gusting 6 11.7
2020-Feb-23 17:00 235 1 gusting 4 11.1
2020-Feb-23 16:45 289 1 gusting 9 10.6
2020-Feb-23 16:30 294 2 gusting 8 10.0
2020-Feb-23 16:17 255 0 gusting 3 10.0
2020-Feb-23 16:02 316 0 gusting 6 9.4
2020-Feb-23 15:46 172 9.4
2020-Feb-23 15:32 243 2 gusting 6 9.4
2020-Feb-23 15:16 335 8.9
2020-Feb-23 15:02 257 8.9
2020-Feb-23 14:46 280 7.8
2020-Feb-23 14:31 235 7.2
2020-Feb-23 14:16 231 6.1
2020-Feb-23 14:01 306 5.0
2020-Feb-23 13:46 174 5.0
2020-Feb-23 13:30 240 3.9
2020-Feb-23 13:15 244 3.3
2020-Feb-23 13:00 174 2.2
2020-Feb-23 12:45 174 0.6
2020-Feb-23 12:30 174 -0.0
2020-Feb-23 12:15 174 -1.1
2020-Feb-23 12:00 203 -2.2
2020-Feb-23 11:45 191 -2.8
2020-Feb-23 11:30 184 -2.8
2020-Feb-23 11:00 207 -2.8
2020-Feb-23 10:45 207 -2.8
2020-Feb-23 10:30 207 -2.2
2020-Feb-23 10:15 236 -1.7
2020-Feb-23 10:00 236 -1.7
2020-Feb-23 09:45 228 -1.7
2020-Feb-23 09:30 238 -1.7
2020-Feb-23 09:15 214 -1.7
2020-Feb-23 09:02 199 -1.7
2020-Feb-23 08:47 221 -1.7
2020-Feb-23 08:31 234 -1.7
2020-Feb-23 08:17 243 -1.7
2020-Feb-23 08:01 248 -1.7
2020-Feb-23 07:45 248 -1.1
2020-Feb-23 07:16 300 -0.0
2020-Feb-23 07:01 221 -0.6
2020-Feb-23 06:46 221 -1.1
2020-Feb-23 06:31 221 -1.1
2020-Feb-23 06:16 221 -0.6
2020-Feb-23 06:00 222 -0.6
2020-Feb-23 05:46 220 -1.1
2020-Feb-23 05:31 196 -0.6
2020-Feb-23 05:16 222 -0.6
2020-Feb-23 05:02 250 -0.6
2020-Feb-23 04:45 241 -0.6
2020-Feb-23 04:32 223 -0.6
2020-Feb-23 04:16 229 0.6
2020-Feb-23 04:00 166 0.6
2020-Feb-23 03:30 166 1.1
2020-Feb-23 03:15 164 1.1
2020-Feb-23 03:01 180 1.1
2020-Feb-23 02:45 172 1.7
2020-Feb-23 02:31 172 1.7
2020-Feb-23 02:16 172 2.2
2020-Feb-23 02:00 172 2.2
2020-Feb-23 01:45 171 2.2
2020-Feb-23 01:30 198 2.8
2020-Feb-23 01:16 148 2.8
2020-Feb-23 01:00 218 3.3
2020-Feb-23 00:45 217 3.9
2020-Feb-23 00:30 217 3.9
2020-Feb-23 00:16 124 5.0
2020-Feb-23 00:00 138 5.6
2020-Feb-22 23:45 177 6.7
2020-Feb-22 23:31 239 6.1
2020-Feb-22 23:15 257 6.1
2020-Feb-22 23:00 240 7.2
2020-Feb-22 22:46 208 7.8
2020-Feb-22 22:30 290 8.3
2020-Feb-22 22:15 259 8.9
2020-Feb-22 22:00 065 1 gusting 5 9.4
2020-Feb-22 21:45 303 1 gusting 10 10.0
2020-Feb-22 21:30 312 3 gusting 6 10.0
2020-Feb-22 21:15 290 1 gusting 8 10.0
2020-Feb-22 21:00 277 0 gusting 7 10.0
2020-Feb-22 20:45 154 0 gusting 6 10.0
2020-Feb-22 20:30 353 0 gusting 10 10.0
2020-Feb-22 20:15 340 0 gusting 6 10.0
2020-Feb-22 20:00 352 0 gusting 9 10.0
2020-Feb-22 19:45 039 3 gusting 6 9.4
2020-Feb-22 19:30 314 0 gusting 6 9.4
2020-Feb-22 19:15 070 3 gusting 6 9.4
2020-Feb-22 19:00 198 1 gusting 7 9.4
2020-Feb-22 18:45 296 1 gusting 9 8.9
2020-Feb-22 18:30 249 1 gusting 6 8.9
2020-Feb-22 18:16 281 0 gusting 4 8.3
2020-Feb-22 18:01 266 0 gusting 6 7.8
2020-Feb-22 17:31 295 3 gusting 10 7.2
2020-Feb-22 17:16 299 2 gusting 7 6.7
2020-Feb-22 17:01 302 1 gusting 7 6.7
2020-Feb-22 16:45 240 3 gusting 8 6.1
2020-Feb-22 16:31 315 0 gusting 8 5.6
2020-Feb-22 16:16 302 2 gusting 7 5.6
2020-Feb-22 16:00 082 5.0
2020-Feb-22 15:46 226 4 gusting 8 3.9
2020-Feb-22 15:30 333 3.9
2020-Feb-22 15:15 310 1 gusting 5 3.3
2020-Feb-22 15:00 229 2.8
2020-Feb-22 14:45 293 0 gusting 5 2.2
2020-Feb-22 14:30 037 1 gusting 6 1.7
2020-Feb-22 14:15 251 1.1
2020-Feb-22 14:00 257 0 gusting 5 0.6
2020-Feb-22 13:45 089 -0.0
2020-Feb-22 13:30 219 -0.6
2020-Feb-22 13:16 245 -1.1
2020-Feb-22 13:01 212 -1.7
2020-Feb-22 12:45 148 -2.8
2020-Feb-22 12:31 262 -3.9
2020-Feb-22 12:15 224 -4.4
2020-Feb-22 12:01 172 -4.4
2020-Feb-22 11:46 108 -4.4
2020-Feb-22 11:33 154 -4.4
2020-Feb-22 11:16 173 -3.9
2020-Feb-22 11:02 215 -3.9
2020-Feb-22 10:46 039 -3.9
2020-Feb-22 10:31 153 -3.9
2020-Feb-22 10:00 144 -3.9
2020-Feb-22 09:46 211 -4.4
2020-Feb-22 09:31 167 -4.4
2020-Feb-22 09:16 250 -3.9
2020-Feb-22 09:00 188 -3.9
2020-Feb-22 08:46 224 -3.3
2020-Feb-22 08:30 110 -3.9
2020-Feb-22 08:15 217 -3.3
2020-Feb-22 08:00 185 -3.3
2020-Feb-22 07:45 349 -3.3
2020-Feb-22 07:30 292 -3.3
2020-Feb-22 07:15 319 -3.9
2020-Feb-22 07:00 213 -3.9
2020-Feb-22 06:45 170 -3.9
2020-Feb-22 06:30 155 -3.9
2020-Feb-22 06:15 037 -3.9
2020-Feb-22 06:00 336 -3.9
2020-Feb-22 05:45 200 -3.3
2020-Feb-22 05:30 115 -3.9
2020-Feb-22 05:15 160 -3.9
2020-Feb-22 05:00 136 -3.3